This is the latest recevied weather packets stored in our database for station/object IK2YOU-3. If no packets are shown the sender has not sent any weather packets the latest 1 day(s).
| Time | Temp. | Humidity | Pressure | Rain* | Wind** | Luminosity | Snow |
|---|---|---|---|---|---|---|---|
| 1777962835 | 13.33° C | 79% | 1010.9 hPa | 1.78 mm | 0.89 m/s, 235° | 47 W/m² | - |
| 1777962363 | 13.33° C | 79% | 1010.7 hPa | 1.52 mm | 1.34 m/s, 225° | 32 W/m² | - |
| 1777961634 | 13.33° C | 81% | 1010.8 hPa | 1.02 mm | 1.34 m/s, 200° | 23 W/m² | - |
| 1777961034 | 13.33° C | 82% | 1010.9 hPa | 0.76 mm | 0.89 m/s, 221° | 15 W/m² | - |
| 1777960566 | 13.33° C | 83% | 1010.8 hPa | 0.51 mm | 1.34 m/s, 219° | 11 W/m² | - |
| 1777959962 | 13.89° C | 84% | 1010.7 hPa | 0.51 mm | 1.79 m/s, 215° | 12 W/m² | - |
| 1777959234 | 13.89° C | 85% | 1010.5 hPa | 0.25 mm | 1.34 m/s, 257° | 6 W/m² | - |
| 1777958633 | 14.44° C | 86% | 1010.3 hPa | 0 mm | 1.34 m/s, 258° | 5 W/m² | - |
| 1777958034 | 14.44° C | 85% | 1010.2 hPa | 0 mm | 1.34 m/s, 227° | 6 W/m² | - |
| 1777957435 | 14.44° C | 84% | 1010.1 hPa | 0 mm | 1.34 m/s, 209° | 14 W/m² | - |
| 1777956961 | 15° C | 83% | 1010.1 hPa | 0 mm | 1.79 m/s, 234° | 16 W/m² | - |
| 1777956233 | 15° C | 82% | 1009.9 hPa | 0 mm | 1.34 m/s, 210° | 9 W/m² | - |
| 1777955633 | 15° C | 81% | 1009.8 hPa | 0 mm | 0.89 m/s, 229° | 2 W/m² | - |
| 1777955034 | 15° C | 81% | 1009.8 hPa | 0 mm | 0.45 m/s, 238° | 2 W/m² | - |
| 1777954432 | 15° C | 81% | 1009.7 hPa | 0 mm | 0.89 m/s, 219° | 0 W/m² | - |
| 1777953832 | 15° C | 78% | 1009.7 hPa | 0 mm | 0.45 m/s, 226° | 0 W/m² | - |
| 1777953229 | 15° C | 77% | 1009.9 hPa | 0 mm | 0 m/s | 0 W/m² | - |
| 1777952629 | 15.56° C | 77% | 1009.9 hPa | 0 mm | 0 m/s | 0 W/m² | - |
| 1777952024 | 15.56° C | 77% | 1009.9 hPa | 0 mm | 0.45 m/s, 205° | 0 W/m² | - |
| 1777951426 | 15.56° C | 76% | 1009.9 hPa | 0 mm | 0 m/s | 0 W/m² | - |
| 1777950824 | 15.56° C | 75% | 1010.1 hPa | 0 mm | 0.89 m/s, 182° | 0 W/m² | - |
| 1777950223 | 15.56° C | 75% | 1010.2 hPa | 0 mm | 0.45 m/s, 204° | 0 W/m² | - |
* Rain latest hour (hover to see other rain measurements)
** Current wind speed in m/s (hover to see current wind gust speed)